Location: Clyde
(45.1830°S, 169.3170°E)
Time: 08:05:21
(UTC+12:00)

Atlas Centaur 2 - Pass Details

Date: 14 May 2021
Orbit: 459 x 1308 km, 30.4° (Epoch: 20 June)

Event Time Altitude Azimuth Distance (km) Brightness Sun altitude
Rises 17:55:38 0° 309° (NW) 3,023 6.8 -5.8°
Reaches altitude 10° 17:58:32 10° 328° (NNW) 2,262 5.3 -6.3°
Maximum altitude 18:02:06 18° 10° (N) 1,951 4.2 -6.9°
Drops below altitude 10° 18:06:12 10° 50° (NE) 2,662 4.5 -7.6°
Sets 18:10:01 0° 66° (ENE) 3,795 5.1 -8.2°
